EW6223 Weather Reports


time (UTC)temp
C
wind
direction
speed
KPH
gust
KPH
rain 1hr
cm
rain 24hr
cm
rain mn
cm
humidity
%
barometer
mb
20260507051540 24 86 0.0 0.0 0.00 0.00 0.00 78 1002.8
20260507050039 24 86 0.0 0.0 0.00 0.00 0.00 78 1004.0
20260507044540 25 85 0.0 0.0 0.00 0.00 0.00 77 1002.5
20260507043038 25 86 0.0 0.0 0.00 0.00 0.00 77 1003.1
20260507041532 25 86 0.0 0.0 0.00 0.00 0.00 76 999.1
20260507040034 25 86 0.0 0.0 0.00 0.00 0.00 76 996.5
20260507034535 25 86 0.0 1.6 0.00 0.00 0.00 75 997.2
20260507033029 25 86 0.0 0.0 0.00 0.00 0.00 75 997.2
20260507031527 25 86 0.0 3.2 0.00 0.00 0.00 75 1004.9
20260507030027 25 85 1.6 4.8 0.00 0.00 0.00 74 986.9
20260507024527 25 86 1.6 6.4 0.00 0.00 0.00 74 986.5
20260507023025 25 69 3.2 6.4 0.00 0.00 0.00 74 988.7
20260507021523 25 73 1.6 9.7 0.00 0.00 0.00 73 995.8
20260507020030 25 79 3.2 6.4 0.00 0.00 0.00 72 1000.0
20260507014522 26 81 3.2 6.4 0.00 0.00 0.00 71 999.2
20260507013039 26 60 3.2 4.8 0.00 0.00 0.00 70 997.1
20260507011603 26 87 3.2 6.4 0.00 0.00 0.00 69 995.9
20260507010104 26 84 3.2 6.4 0.00 0.00 0.00 68 993.7
20260507004554 26 88 3.2 6.4 0.00 0.00 0.00 67 993.7
20260507003054 26 76 4.8 8.0 0.00 0.00 0.00 66 993.7
20260507001554 27 83 4.8 8.0 0.00 0.00 0.00 65 999.4
20260507000052 27 80 4.8 8.0 0.00 0.00 0.00 65 999.7
20260506234551 26 60 3.2 6.4 0.00 0.00 0.00 63 994.8
20260506233104 26 66 3.2 6.4 0.00 0.00 0.00 63 997.6
20260506231549 26 79 3.2 8.0 0.00 0.00 0.00 63 1000.6
20260506230049 26 73 3.2 6.4 0.00 0.00 0.00 63 992.4
20260506224548 27 122 1.6 6.4 0.00 0.00 0.00 60 991.4
20260506223050 27 154 1.6 6.4 0.00 0.00 0.00 59 1001.7
20260506221553 26 158 3.2 6.4 0.00 0.00 0.00 62 1001.7
20260506220044 27 193 3.2 8.0 0.00 0.00 0.00 60 1001.2
20260506214544 26 211 3.2 8.0 0.00 0.00 0.00 61 1004.3
20260506213044 27 224 4.8 8.0 0.00 0.00 0.00 58 1000.7
20260506211542 28 172 3.2 6.4 0.00 0.00 0.00 55 1003.9
20260506210043 29 223 3.2 6.4 0.00 0.00 0.00 52 1004.9
20260506204541 29 226 3.2 6.4 0.00 0.00 0.00 52 1006.5
20260506203039 29 227 3.2 6.4 0.00 0.00 0.00 53 1005.2
20260506201511 29 177 3.2 8.0 0.00 0.00 0.00 54 998.0
20260506200027 29 210 4.8 8.0 0.00 0.00 0.00 55 1002.8
20260506194507 30 271 1.6 8.0 0.00 0.00 0.00 58 1000.0
20260506193007 28 123 1.6 6.4 0.00 0.00 0.00 60 1000.9
20260506191506 29 188 3.2 6.4 0.00 0.00 0.00 59 1003.4
20260506190006 29 172 3.2 8.0 0.00 0.00 0.00 59 1003.7
20260506184627 30 196 1.6 8.0 0.00 0.00 0.00 60 1000.6
20260506183035 28 225 3.2 11.3 0.00 0.00 0.00 63 1003.7
20260506181530 28 217 1.6 9.7 0.00 0.00 0.00 67 1006.4
20260506180026 27 183 1.6 6.4 0.00 0.00 0.00 68 1007.1
20260506174524 27 235 1.6 6.4 0.00 0.00 0.00 68 1001.8
20260506173024 27 199 1.6 8.0 0.00 0.00 0.00 67 1000.3
20260506171525 28 189 1.6 6.4 0.00 0.00 0.00 65 1005.5
20260506170019 28 151 1.6 6.4 0.00 0.00 0.00 66 1001.2
20260506164517 28 110 3.2 4.8 0.00 0.00 0.00 65 999.4
20260506163013 27 221 0.0 6.4 0.00 0.00 0.00 66 1001.4
20260506161510 27 167 1.6 6.4 0.00 0.00 0.00 67 1006.9
20260506160039 27 193 1.6 6.4 0.00 0.00 0.00 67 1005.8
20260506154537 26 177 1.6 6.4 0.00 0.00 0.00 68 1007.0
20260506153102 26 128 1.6 4.8 0.00 0.00 0.00 67 1005.5
20260506151556 26 139 0.0 4.8 0.00 0.00 0.00 67 1006.8
20260506150051 26 154 1.6 4.8 0.00 0.00 0.00 65 1006.7
20260506144549 26 196 0.0 4.8 0.00 0.00 0.00 62 1006.6
20260506143045 25 254 0.0 0.0 0.00 0.00 0.00 63 1005.4
20260506141559 25 254 0.0 4.8 0.00 0.00 0.00 63 1005.2
20260506140040 24 217 1.6 4.8 0.00 0.00 0.00 65 1006.1
20260506134532 23 52 0.0 0.0 0.00 0.00 0.00 71 1006.0
20260506133027 -17 0.0 0.0 0.00 0.00 0.00 1005.9
20260506131525 -17 0.0 0.0 0.00 0.00 0.00 1005.6
20260506130050 -17 0.0 0.0 0.00 0.00 0.00 1005.6
20260506124546 -17 0.0 0.0 0.00 0.00 0.00 1005.5
20260506123043 23 278 0.0 3.2 0.00 0.00 0.00 62 1005.4
20260506121543 23 278 0.0 3.2 0.00 0.00 0.00 62 1005.0
20260506120105 23 278 0.0 0.0 0.00 0.00 0.00 60 1004.8
20260506114541 23 278 0.0 0.0 0.00 0.00 0.00 62 1004.7
20260506113036 22 278 0.0 0.0 0.00 0.00 0.00 62 1004.5
20260506111539 23 278 3.2 6.4 0.00 0.00 0.00 61 1004.6
20260506110035 23 278 3.2 9.7 0.00 0.00 0.00 62 1004.5
20260506104534 23 307 1.6 9.7 0.00 0.00 0.00 64 1004.5
20260506103035 23 319 1.6 4.8 0.00 0.00 0.00 64 1004.5
20260506101532 24 324 0.0 6.4 0.00 0.00 0.00 64 1004.2
20260506100034 24 327 3.2 6.4 0.00 0.00 0.00 62 1004.5
20260506094535 24 325 1.6 8.0 0.00 0.00 0.00 58 1004.6
20260506093042 24 321 3.2 8.0 0.00 0.00 0.00 54 1004.6
20260506091528 24 316 3.2 6.4 0.00 0.00 0.00 54 1004.7
20260506090026 24 314 1.6 8.0 0.00 0.00 0.00 57 1004.6
20260506084525 23 275 1.6 8.0 0.00 0.00 0.00 59 1004.1
20260506083022 23 275 0.0 4.8 0.00 0.00 0.00 61 1004.1
20260506081521 22 275 0.0 3.2 0.00 0.00 0.00 64 1003.6
20260506073014 23 274 3.2 8.0 0.00 0.00 0.00 67 1004.5
20260506071512 23 274 0.0 0.0 0.00 0.00 0.00 68 1005.0
20260506061506 24 275 0.0 0.0 0.00 0.00 0.00 66 1004.1